Track COSMOS 2485 (GLONASS) now! COSMOS 2485 (GLONASS) is classified as:
1 39155U 13019A 24338.14818166 .00000017 00000-0 00000+0 0 9999 2 39155 65.1212 92.4784 0023776 228.5813 131.2049 2.13104355 90328